1488909600.38,23318,9.63,72814.8,-9.21,-14.89,-17.69,0,*5C
1488909601.67,23319,9.63,72814.5,-9.21,-14.83,-17.55,0,*58
1488909602.96,23320,9.63,72816.5,-9.21,-14.83,-17.55,0,*52
1488909604.2,23321,9.63,72812.8,-9.19,-14.89,-17.45,0,*53
1488909605.47,23322,9.63,72814.3,-9.21,-14.75,-17.35,0,*5F
1488909606.68,23323,9.63,72812.8,-9.19,-14.69,-17.31,0,*5C
1488909607.97,23324,9.63,72812.8,-9.21,-14.83,-17.21,0,*55
1488909609.26,23325,9.63,72812.3,-9.21,-14.83,-17.21,0,*54
1488909610.57,23326,9.63,72814.0,-9.21,-14.83,-17.07,0,*53
1488909611.79,23327,9.63,72816.5,-9.21,-14.69,-16.89,0,*51
1488909613.06,23328,9.63,72812.0,-9.21,-14.75,-16.79,0,*5C
1488909614.32,23329,9.63,72814.3,-9.21,-14.75,-16.75,0,*51
1488909615.59,23330,9.63,72812.8,-9.21,-14.75,-16.59,0,*57
1488909616.85,23331,9.63,72814.3,-9.21,-14.69,-16.31,0,*55
1488909618.11,23332,9.63,72816.3,-9.21,-14.61,-16.17,0,*5A
1488909619.41,23333,9.63,72812.0,-9.21,-14.51,-16.13,0,*5C
1488909620.65,23334,9.63,72812.8,-9.19,-14.51,-15.99,0,*51
1488909621.95,23335,9.63,72812.5,-9.21,-14.43,-15.85,0,*55
1488909623.19,23336,9.63,72814.8,-9.21,-14.29,-15.71,0,*51
1488909624.46,23337,9.63,72812.3,-9.21,-14.29,-15.57,0,*54
1488909625.73,23338,9.63,72816.3,-9.21,-14.23,-15.43,0,*54
1488909627.01,23339,9.63,72814.8,-9.21,-14.15,-15.39,0,*5D
1488909628.27,23340,9.63,72812.5,-9.21,-14.11,-15.29,0,*56
1488909629.55,23341,9.63,72816.0,-9.21,-14.01,-15.29,0,*56
1488909630.8,23342,9.63,72812.3,-9.19,-14.01,-15.29,0,*5E
1488909632.08,23343,9.63,72814.5,-9.21,-13.87,-15.29,0,*5D
1488909633.36,23344,9.63,72814.0,-9.21,-13.97,-15.25,0,*57
1488909634.64,23345,9.63,72814.3,-9.21,-13.97,-15.25,0,*56
1488909635.89,23346,9.63,72812.3,-9.23,-14.01,-15.29,0,*53
1488909637.14,23347,9.63,72814.3,-9.23,-14.01,-15.29,0,*52
1488909638.41,23348,9.63,72812.5,-9.21,-13.97,-15.15,0,*58
1488909639.69,23349,9.63,72812.8,-9.21,-13.83,-15.15,0,*5C
1488909640.95,23350,9.63,72812.8,-9.21,-13.73,-15.01,0,*5E
1488909642.22,23351,9.63,72812.3,-9.21,-13.73,-14.97,0,*51
1488909643.49,23352,9.63,72818.0,-9.21,-13.73,-14.97,0,*52
1488909644.76,23353,9.63,72816.5,-9.21,-13.73,-14.97,0,*53
1488909646.0,23354,9.63,72814.3,-9.21,-13.65,-14.89,0,*5C
1488909647.23,23355,9.63,72812.3,-9.23,-13.69,-15.01,0,*52
1488909648.47,23356,9.63,72816.5,-9.23,-13.69,-14.93,0,*5B
1488909649.71,23357,9.63,72812.5,-9.23,-13.73,-15.01,0,*5B
1488909650.95,23358,9.63,72818.8,-9.21,-13.65,-14.89,0,*50
1488909652.21,23359,9.63,72812.8,-9.21,-13.69,-14.75,0,*5E
1488909653.45,23360,9.63,72812.3,-9.21,-13.65,-14.61,0,*5D
1488909654.71,23361,9.63,72814.3,-9.21,-13.65,-14.51,0,*5F
1488909655.92,23362,9.63,72816.3,-9.23,-13.55,-14.19,0,*51
1488909657.21,23363,9.63,72816.3,-9.21,-13.37,-13.97,0,*57
1488909658.44,23364,9.63,72816.5,-9.23,-13.33,-13.93,0,*52
1488909659.67,23365,9.69,72818.8,-9.23,-13.29,-13.93,0,*58
1488909660.93,23366,9.63,72816.5,-9.23,-13.29,-14.05,0,*53
1488909662.2,23367,9.63,72814.8,-9.21,-13.23,-14.01,0,*5E
1488909663.44,23368,9.63,72816.8,-9.21,-13.23,-14.11,0,*50
1488909664.71,23369,9.63,72812.5,-9.21,-13.29,-14.15,0,*5F
1488909665.97,23370,9.63,72812.3,-9.21,-13.29,-14.29,0,*58
1488909667.24,23371,9.69,72816.8,-9.21,-13.29,-14.37,0,*56
1488909668.52,23372,9.69,72816.3,-9.21,-13.29,-14.43,0,*56
1488909669.79,23373,9.63,72816.3,-9.21,-13.43,-14.51,0,*58
1488909671.07,23374,9.63,72816.8,-9.21,-13.29,-14.43,0,*50
1488909672.31,23375,9.69,72816.5,-9.19,-13.43,-14.51,0,*55
1488909673.56,23376,9.63,72818.3,-9.19,-13.43,-14.55,0,*52
1488909674.82,23377,9.63,72814.0,-9.21,-13.43,-14.55,0,*58
1488909676.09,23378,9.63,72812.0,-9.21,-13.43,-14.51,0,*53
1488909677.35,23379,9.63,72814.8,-9.21,-13.55,-14.43,0,*56
1488909678.59,23380,9.63,72814.5,-9.21,-13.51,-14.37,0,*57
1488909679.84,23381,9.63,72814.3,-9.21,-13.51,-14.23,0,*53
1488909681.11,23382,9.63,72816.3,-9.21,-13.51,-14.01,0,*50
1488909682.39,23383,9.63,72816.0,-9.21,-13.51,-13.97,0,*59
1488909683.65,23384,9.63,72816.3,-9.21,-13.51,-13.83,0,*5B
1488909684.92,23385,9.63,72816.0,-9.21,-13.37,-13.73,0,*55
1488909686.18,23386,9.63,72814.5,-9.21,-13.37,-13.69,0,*5D
1488909687.44,23387,9.63,72814.5,-9.21,-13.37,-13.55,0,*53
1488909688.71,23388,9.63,72814.0,-9.21,-13.29,-13.55,0,*53
1488909689.94,23389,9.63,72816.5,-9.21,-13.23,-13.43,0,*5F
1488909691.2,23390,9.63,72818.0,-9.21,-13.15,-13.29,0,*5E
1488909692.44,23391,9.63,72816.0,-9.21,-13.11,-13.15,0,*54
1488909693.68,23392,9.63,72812.0,-9.21,-12.97,-13.11,0,*5C
1488909694.89,23393,9.63,72814.3,-9.19,-12.89,-12.97,0,*56
1488909696.13,23394,9.63,72814.8,-9.19,-12.83,-12.89,0,*54
1488909697.38,23395,9.63,72812.3,-9.19,-12.71,-12.89,0,*58
1488909698.65,23396,9.63,72818.5,-9.19,-12.71,-12.71,0,*5C
1488909699.91,23397,9.63,72818.0,-9.19,-12.57,-12.83,0,*54
1488909701.18,23398,9.63,72814.5,-9.19,-12.53,-12.83,0,*5F
1488909702.43,23399,9.63,72812.5,-9.19,-12.43,-12.71,0,*52
1488909703.7,23400,9.63,72812.0,-9.21,-12.29,-12.83,0,*5F
1488909704.96,23401,9.63,72818.0,-9.21,-12.29,-12.83,0,*5E
1488909706.2,23402,9.63,72816.5,-9.19,-12.39,-13.01,0,*5C
1488909707.41,23403,9.63,72814.8,-9.19,-12.39,-13.11,0,*5C
1488909708.65,23404,9.63,72814.8,-9.21,-12.43,-13.23,0,*5C
1488909709.91,23405,9.63,72816.3,-9.19,-12.53,-13.37,0,*52
1488909711.15,23406,9.63,72816.0,-9.19,-12.53,-13.43,0,*52
1488909712.42,23407,9.63,72818.5,-9.21,-12.53,-13.43,0,*58
1488909713.66,23408,9.63,72812.8,-9.19,-12.53,-13.43,0,*5C
1488909714.89,23409,9.63,72816.5,-9.19,-12.65,-13.65,0,*5C
1488909716.13,23410,9.63,72816.5,-9.19,-12.71,-13.65,0,*51
1488909717.36,23411,9.69,72818.8,-9.19,-12.71,-13.69,0,*5C
1488909718.6,23412,9.63,72816.3,-9.19,-12.79,-13.73,0,*5C
1488909719.86,23413,9.63,72816.3,-9.19,-12.83,-13.83,0,*57
1488909721.1,23414,9.63,72814.3,-9.19,-12.89,-13.87,0,*5E
1488909722.34,23415,9.63,72814.3,-9.19,-12.97,-13.97,0,*51
1488909723.61,23416,9.63,72818.8,-9.19,-13.01,-14.01,0,*54
1488909724.86,23417,9.63,72814.3,-9.19,-13.23,-13.97,0,*5D
1488909726.15,23418,9.63,72816.5,-9.21,-13.37,-14.01,0,*54
1488909727.36,23419,9.63,72814.8,-9.19,-13.43,-14.11,0,*5C
1488909728.61,23420,9.63,72818.3,-9.19,-13.55,-14.01,0,*50
1488909729.85,23421,9.63,72814.0,-9.19,-13.83,-14.11,0,*5B
1488909731.12,23422,9.63,72812.8,-9.19,-13.83,-14.01,0,*59
1488909732.39,23423,9.63,72818.5,-9.19,-13.83,-13.83,0,*55
1488909733.65,23424,9.63,72818.5,-9.19,-13.87,-13.83,0,*56
1488909734.88,23425,9.63,72818.3,-9.17,-13.93,-13.93,0,*5D
1488909736.18,23426,9.63,72814.0,-9.17,-14.05,-14.05,0,*5E
1488909737.45,23427,9.63,72814.0,-9.17,-14.19,-14.05,0,*52
1488909738.72,23428,9.63,72814.3,-9.17,-14.19,-14.05,0,*5D
1488909739.99,23429,9.63,72818.0,-9.17,-14.23,-14.05,0,*55
1488909741.26,23430,9.63,72818.0,-9.17,-14.33,-13.97,0,*50
1488909742.5,23431,9.63,72816.3,-9.17,-14.33,-13.93,0,*55
1488909743.76,23432,9.63,72814.0,-9.17,-14.23,-13.79,0,*53
1488909745.0,23433,9.63,72816.5,-9.17,-14.23,-13.69,0,*53
1488909746.25,23434,9.63,72818.8,-9.17,-14.23,-13.51,0,*5F
1488909747.49,23435,9.63,72812.8,-9.17,-14.11,-13.51,0,*5F
1488909748.73,23436,9.63,72814.5,-9.17,-13.93,-13.51,0,*51
1488909750.0,23437,9.63,72816.3,-9.17,-13.83,-13.51,0,*51
1488909751.25,23438,9.63,72816.8,-9.19,-13.83,-13.51,0,*50
1488909752.48,23439,9.63,72818.3,-9.17,-13.69,-13.47,0,*5C
1488909753.71,23440,9.63,72816.5,-9.17,-13.69,-13.47,0,*52
1488909754.96,23441,9.63,72816.3,-9.19,-13.83,-13.65,0,*59
1488909756.22,23442,9.63,72816.3,-9.17,-13.79,-13.65,0,*51
1488909757.48,23443,9.63,72816.5,-9.17,-13.83,-13.69,0,*59
1488909758.77,23444,9.63,72818.3,-9.17,-13.83,-13.79,0,*5F
1488909760.02,23445,9.63,72816.3,-9.17,-13.93,-13.79,0,*5F
1488909761.31,23446,9.63,72816.5,-9.17,-13.83,-13.79,0,*5D
1488909762.58,23447,9.63,72816.0,-9.19,-13.83,-13.83,0,*57
1488909763.82,23448,9.63,72816.0,-9.19,-13.87,-13.73,0,*53
1488909765.09,23449,9.63,72820.3,-9.19,-13.97,-13.83,0,*5C
1488909766.35,23450,9.63,72816.0,-9.19,-13.87,-13.83,0,*55
1488909767.64,23451,9.63,72818.8,-9.21,-13.83,-13.87,0,*5F
1488909768.92,23452,9.63,72816.0,-9.19,-13.97,-13.97,0,*53
1488909770.19,23453,9.63,72816.0,-9.19,-13.87,-13.97,0,*53
1488909771.45,23454,9.63,72816.8,-9.19,-13.87,-13.83,0,*51
1488909772.71,23455,9.63,72816.0,-9.19,-13.87,-13.87,0,*54
1488909773.98,23456,9.63,72814.8,-9.19,-13.83,-13.87,0,*53
1488909775.25,23457,9.63,72816.8,-9.19,-13.83,-13.97,0,*53
1488909776.54,23458,9.63,72814.0,-9.21,-13.83,-13.83,0,*52
1488909777.83,23459,9.63,72816.0,-9.21,-13.87,-13.87,0,*53
1488909779.12,23460,9.63,72818.0,-9.21,-13.87,-13.87,0,*59
1488909780.38,23461,9.63,72814.5,-9.19,-13.87,-13.83,0,*57
1488909781.65,23462,9.63,72816.5,-9.19,-13.97,-13.83,0,*55
1488909782.92,23463,9.63,72818.8,-9.19,-13.97,-13.83,0,*54
1488909784.18,23464,9.63,72816.3,-9.21,-14.11,-13.87,0,*55
1488909785.45,23465,9.63,72820.0,-9.21,-14.11,-13.83,0,*50
1488909786.69,23466,9.63,72814.8,-9.19,-14.11,-13.83,0,*58
1488909787.91,23467,9.63,72818.5,-9.19,-14.11,-13.73,0,*56
1488909789.12,23468,9.63,72818.0,-9.19,-14.11,-13.73,0,*59
1488909790.34,23469,9.63,72814.8,-9.19,-14.15,-13.73,0,*5C
1488909791.56,23470,9.63,72816.5,-9.19,-14.15,-13.69,0,*5F
1488909792.81,23471,9.63,72816.8,-9.21,-14.15,-13.55,0,*5A
1488909794.06,23472,9.63,72814.8,-9.21,-14.15,-13.65,0,*5A
1488909795.3,23473,9.63,72814.8,-9.21,-14.23,-13.51,0,*59
1488909796.52,23474,9.63,72816.8,-9.19,-14.23,-13.43,0,*56
1488909797.76,23475,9.63,72814.5,-9.19,-14.11,-13.37,0,*55
1488909799.03,23476,9.63,72816.0,-9.19,-14.01,-13.37,0,*57
1488909800.28,23477,9.63,72814.0,-9.19,-14.01,-13.23,0,*53
1488909801.55,23478,9.63,72814.3,-9.21,-14.01,-13.23,0,*57
1488909802.81,23479,9.63,72816.0,-9.21,-13.87,-13.15,0,*5A
1488909804.1,23480,9.63,72816.3,-9.21,-13.87,-13.01,0,*59
1488909805.37,23481,9.63,72814.5,-9.21,-13.83,-12.97,0,*52
1488909806.59,23482,9.63,72816.0,-9.19,-13.73,-12.89,0,*5A
1488909807.83,23483,9.63,72816.3,-9.21,-13.69,-12.89,0,*5B
1488909809.05,23484,9.63,72816.5,-9.19,-13.55,-12.89,0,*58
1488909810.28,23485,9.63,72814.8,-9.19,-13.51,-12.89,0,*5D
1488909811.52,23486,9.63,72816.0,-9.21,-13.51,-12.89,0,*55
1488909812.79,23487,9.63,72814.3,-9.21,-13.51,-12.83,0,*5E
1488909814.04,23488,9.63,72814.8,-9.19,-13.37,-12.89,0,*50
1488909815.28,23489,9.63,72812.8,-9.21,-13.43,-12.89,0,*59
1488909816.55,23490,9.63,72812.5,-9.21,-13.29,-12.89,0,*5D
1488909817.81,23491,9.63,72812.0,-9.21,-13.29,-12.89,0,*5C
1488909819.05,23492,9.63,72812.8,-9.21,-13.15,-12.89,0,*50
1488909820.29,23493,9.63,72814.8,-9.21,-13.11,-12.89,0,*55
1488909821.53,23494,9.63,72812.0,-9.21,-13.11,-12.89,0,*52
1488909822.8,23495,9.63,72818.8,-9.21,-13.01,-12.97,0,*5D
1488909824.06,23496,9.63,72814.8,-9.21,-12.83,-12.89,0,*5A
1488909825.33,23497,9.63,72812.5,-9.21,-12.79,-12.97,0,*51
1488909826.57,23498,9.63,72812.5,-9.19,-12.79,-12.97,0,*55
1488909827.83,23499,9.63,72812.8,-9.21,-12.71,-13.11,0,*58
1488909829.07,23500,9.63,72816.0,-9.19,-12.71,-13.11,0,*52
1488909830.34,23501,9.63,72812.3,-9.21,-12.71,-13.23,0,*59
1488909831.6,23502,9.63,72818.0,-9.21,-12.57,-13.23,0,*5E
1488909832.87,23503,9.63,72816.0,-9.19,-12.57,-13.37,0,*51
1488909834.1,23504,9.63,72814.0,-9.19,-12.57,-13.43,0,*55
1488909835.36,23505,9.63,72816.0,-9.21,-12.57,-13.65,0,*5B
1488909836.6,23506,9.63,72818.3,-9.19,-12.57,-13.69,0,*5F
1488909837.85,23507,9.63,72818.3,-9.21,-12.57,-13.69,0,*55
1488909839.12,23508,9.63,72816.5,-9.19,-12.57,-13.87,0,*51
1488909840.4,23509,9.63,72814.0,-9.21,-12.57,-13.87,0,*5B
1488909841.69,23510,9.63,72812.5,-9.21,-12.57,-14.01,0,*5A
1488909842.95,23511,9.63,72816.0,-9.21,-12.57,-14.11,0,*5A
1488909844.21,23512,9.63,72816.5,-9.21,-12.57,-14.15,0,*5D
1488909845.48,23513,9.63,72816.8,-9.21,-12.57,-14.29,0,*53
1488909846.72,23514,9.63,72816.5,-9.19,-12.57,-14.29,0,*5F
1488909847.98,23515,9.63,72816.5,-9.17,-12.61,-14.37,0,*5A
1488909849.25,23516,9.63,72818.8,-9.19,-12.71,-14.55,0,*52
1488909850.51,23517,9.63,72816.5,-9.21,-12.79,-14.69,0,*5F
1488909851.77,23518,9.63,72816.5,-9.21,-12.83,-14.89,0,*5B
1488909853.01,23519,9.63,72816.5,-9.21,-12.89,-15.11,0,*50
1488909854.26,23520,9.63,72818.3,-9.21,-12.89,-15.25,0,*5D
1488909855.51,23521,9.63,72814.3,-9.19,-13.01,-15.53,0,*57
1488909856.77,23522,9.63,72818.8,-9.21,-13.01,-15.63,0,*5C
1488909858.04,23523,9.63,72814.8,-9.21,-13.01,-15.71,0,*5E
1488909859.26,23524,9.63,72816.5,-9.19,-13.11,-15.99,0,*55
1488909860.52,23525,9.63,72818.8,-9.21,-13.15,-16.27,0,*5D
1488909861.78,23526,9.63,72812.0,-9.19,-13.37,-16.65,0,*53
1488909863.05,23527,9.63,72814.0,-9.21,-13.51,-17.17,0,*5D
1488909864.3,23528,9.63,72818.3,-9.21,-13.73,-17.35,0,*52
1488909865.57,23529,9.63,72816.5,-9.19,-13.87,-17.63,0,*50
1488909866.82,23530,9.63,72818.5,-9.21,-14.11,-17.83,0,*55
1488909868.09,23531,9.63,72818.0,-9.21,-14.23,-17.97,0,*50
1488909869.31,23532,9.63,72818.5,-9.19,-14.37,-18.11,0,*5C
1488909870.58,23533,9.63,72818.0,-9.21,-14.55,-18.07,0,*55
1488909871.82,23534,9.63,72818.0,-9.21,-14.61,-18.07,0,*55
1488909873.08,23535,9.63,72816.0,-9.21,-14.69,-17.97,0,*5A
1488909874.36,23536,9.63,72816.0,-9.21,-14.83,-18.11,0,*5C
1488909875.59,23537,9.63,72814.0,-9.19,-15.01,-18.11,0,*5D
1488909876.83,23538,9.63,72818.8,-9.21,-15.15,-18.21,0,*5F
1488909878.08,23539,9.63,72814.8,-9.21,-15.29,-18.11,0,*52
1488909879.32,23540,9.63,72818.3,-9.21,-15.29,-18.07,0,*5B
1488909880.61,23541,9.63,72818.0,-9.21,-15.43,-17.97,0,*50
1488909881.88,23542,9.63,72814.5,-9.21,-15.57,-17.83,0,*53
1488909883.17,23543,9.63,72818.5,-9.21,-15.57,-17.79,0,*57
1488909884.38,23544,9.63,72814.8,-9.27,-15.67,-17.69,0,*54
1488909885.59,23545,9.63,72816.8,-9.23,-15.75,-17.69,0,*52
1488909886.85,23546,9.63,72818.8,-9.23,-15.81,-17.59,0,*59
1488909888.06,23547,9.63,72814.3,-9.23,-15.95,-17.49,0,*5C
1488909889.27,23548,9.63,72816.3,-9.23,-16.03,-17.49,0,*5F
1488909890.5,23549,9.63,72818.3,-9.23,-16.17,-17.49,0,*5B
1488909891.74,23550,9.63,72816.8,-9.23,-16.23,-17.35,0,*5F
1488909893.01,23551,9.63,72816.0,-9.27,-16.23,-17.25,0,*5B
1488909894.25,23552,9.63,72814.0,-9.27,-16.45,-17.21,0,*5C
1488909895.5,23553,9.63,72816.8,-9.27,-16.55,-17.07,0,*58
1488909896.75,23554,9.63,72818.5,-9.23,-16.55,-17.07,0,*5B
1488909897.96,23555,9.63,72816.0,-9.27,-16.79,-16.93,0,*5C
1488909899.21,23556,9.63,72816.5,-9.27,-16.69,-16.83,0,*5F
1488909900.42,23557,9.63,72816.0,-9.23,-16.83,-16.79,0,*5B
1488909901.66,23558,9.63,72816.3,-9.27,-16.97,-16.65,0,*58
1488909902.87,23559,9.63,72816.5,-9.27,-16.97,-16.45,0,*5B
1488909904.14,23560,9.63,72812.8,-9.27,-17.07,-16.31,0,*5A
1488909905.41,23561,9.63,72814.3,-9.27,-17.11,-16.17,0,*58
1488909906.65,23562,9.63,72816.3,-9.27,-17.07,-16.03,0,*59
1488909907.92,23563,9.63,72814.3,-9.27,-17.21,-15.89,0,*5D
1488909909.17,23564,9.63,72816.8,-9.27,-17.07,-15.75,0,*5D
1488909910.41,23565,9.63,72812.8,-9.31,-17.17,-15.67,0,*59
1488909911.66,23566,9.63,72814.8,-9.27,-17.11,-15.49,0,*57
1488909912.95,23567,9.63,72808.0,-9.29,-17.11,-15.39,0,*5F
1488909914.23,23568,9.63,72812.8,-9.29,-17.17,-15.25,0,*5B
1488909915.51,23569,9.63,72812.3,-9.29,-17.17,-15.11,0,*5D
1488909916.77,23570,9.63,72814.5,-9.29,-17.11,-15.07,0,*54
1488909918.06,23571,9.63,72814.5,-9.29,-17.11,-14.93,0,*59
1488909919.36,23572,9.63,72816.5,-9.29,-17.25,-14.97,0,*59
1488909920.66,23573,9.63,72816.3,-9.29,-17.03,-14.83,0,*59
1488909921.87,23574,9.63,72814.5,-9.27,-16.93,-14.61,0,*54
1488909923.12,23575,9.63,72818.8,-9.31,-16.83,-14.47,0,*57
1488909924.39,23576,9.63,72818.5,-9.29,-16.83,-14.47,0,*5D
1488909925.66,23577,9.63,72814.3,-9.29,-16.89,-14.47,0,*56
1488909926.88,23578,9.63,72816.5,-9.31,-16.89,-14.33,0,*53
1488909928.12,23579,9.63,72816.0,-9.29,-16.83,-14.23,0,*50
1488909929.37,23580,9.63,72818.3,-9.29,-16.83,-14.19,0,*5F
1488909930.61,23581,9.63,72816.0,-9.31,-16.69,-14.19,0,*53
1488909931.9,23582,9.63,72814.8,-9.29,-16.69,-13.97,0,*58
1488909933.15,23583,9.63,72816.8,-9.29,-16.55,-13.93,0,*52
1488909934.43,23584,9.63,72816.8,-9.29,-16.51,-13.79,0,*55
1488909935.64,23585,9.63,72814.8,-9.27,-16.37,-13.73,0,*50
1488909936.86,23586,9.63,72812.0,-9.31,-16.41,-13.65,0,*52
1488909938.15,23587,9.63,72814.5,-9.29,-16.27,-13.61,0,*5E
1488909939.42,23588,9.63,72818.3,-9.29,-16.13,-13.47,0,*52
1488909940.69,23589,9.63,72818.3,-9.31,-16.13,-13.37,0,*5D
1488909941.92,23590,9.63,72814.8,-9.29,-15.99,-13.23,0,*58
1488909943.16,23591,9.63,72816.3,-9.29,-15.95,-13.11,0,*54
1488909944.4,23592,9.63,72818.5,-9.31,-15.81,-13.07,0,*5C
1488909945.64,23593,9.63,72818.3,-9.29,-15.67,-13.07,0,*5C
1488909946.85,23594,9.63,72818.3,-9.31,-15.67,-13.07,0,*52
1488909948.09,23595,9.63,72818.0,-9.29,-15.63,-12.97,0,*56
1488909949.33,23596,9.63,72816.0,-9.31,-15.63,-12.79,0,*5C
1488909950.58,23597,9.63,72816.8,-9.31,-15.53,-12.79,0,*5E
1488909951.85,23598,9.63,72814.0,-9.29,-15.49,-12.75,0,*5F
1488909953.14,23599,9.63,72816.3,-9.29,-15.35,-12.65,0,*54
1488909954.4,23600,9.63,72816.0,-9.29,-15.25,-12.61,0,*52
1488909955.69,23601,9.63,72820.8,-9.29,-15.21,-12.61,0,*57
1488909956.93,23602,9.63,72818.5,-9.29,-15.11,-12.47,0,*53
1488909958.19,23603,9.63,72818.5,-9.29,-15.21,-12.47,0,*51
1488909959.4,23604,9.63,72818.5,-9.31,-15.07,-12.47,0,*5B
1488909960.64,23605,9.63,72816.3,-9.31,-14.97,-12.39,0,*5B
1488909961.9,23606,9.63,72816.0,-9.29,-14.93,-12.25,0,*58
1488909963.19,23607,9.63,72818.3,-9.29,-14.79,-12.35,0,*5C
1488909964.46,23608,9.63,72818.8,-9.29,-14.79,-12.25,0,*52
1488909965.7,23609,9.63,72816.5,-9.29,-14.65,-12.21,0,*5A
1488909966.97,23610,9.63,72812.8,-9.29,-14.65,-12.11,0,*51
1488909968.27,23611,9.63,72818.5,-9.29,-14.51,-12.07,0,*50
1488909969.57,23612,9.63,72818.5,-9.29,-14.47,-11.97,0,*5E
1488909970.87,23613,9.63,72816.5,-9.29,-14.47,-12.07,0,*55
1488909972.14,23614,9.63,72820.8,-9.29,-14.33,-12.07,0,*51
1488909973.39,23615,9.63,72822.0,-9.31,-14.23,-11.97,0,*52
1488909974.66,23616,9.63,72822.3,-9.29,-14.11,-11.93,0,*5D
1488909975.97,23617,9.63,72816.3,-9.29,-14.05,-11.89,0,*52
1488909977.27,23618,9.63,72820.0,-9.29,-13.97,-11.89,0,*51
1488909978.57,23619,9.63,72818.3,-9.29,-13.83,-11.81,0,*5D
1488909979.81,23620,9.63,72818.3,-9.27,-13.73,-11.77,0,*5F
1488909981.09,23621,9.63,72818.5,-9.29,-13.61,-11.81,0,*5A
1488909982.39,23622,9.63,72818.3,-9.29,-13.61,-11.77,0,*50
1488909983.68,23623,9.63,72818.8,-9.29,-13.61,-11.67,0,*50
1488909984.98,23624,9.63,72816.5,-9.29,-13.37,-11.63,0,*50
1488909986.27,23625,9.63,72820.3,-9.29,-13.33,-11.55,0,*50
1488909987.55,23626,9.63,72816.0,-9.29,-13.19,-11.51,0,*5F
1488909988.81,23627,9.63,72816.3,-9.27,-13.01,-11.37,0,*59
1488909990.05,23628,9.63,72816.3,-9.27,-12.89,-11.37,0,*57
1488909991.31,23629,9.63,72816.0,-9.27,-12.75,-11.33,0,*51
1488909992.56,23630,9.63,72816.3,-9.27,-12.75,-11.23,0,*58
1488909993.79,23631,9.63,72818.5,-9.27,-12.61,-11.19,0,*55
1488909995.03,23632,9.63,72822.8,-9.27,-12.61,-11.23,0,*5F
1488909996.25,23633,9.63,72818.5,-9.27,-12.47,-11.23,0,*5A
1488909997.46,23634,9.63,72818.8,-9.27,-12.47,-11.11,0,*5C
1488909998.7,23635,9.63,72818.0,-9.27,-12.35,-11.19,0,*50
1488909999.95,23636,9.63,72820.0,-9.27,-12.21,-11.07,0,*59
1488910001.23,23637,9.63,72818.3,-9.27,-11.93,-11.07,0,*52
1488910002.5,23638,9.63,72818.0,-9.27,-11.85,-11.07,0,*5A
1488910003.74,23639,9.63,72820.3,-9.27,-11.73,-10.93,0,*5E
1488910004.98,23640,9.63,72818.8,-9.27,-11.77,-11.01,0,*5E
1488910006.22,23641,9.63,72816.5,-9.27,-11.73,-11.01,0,*5B
1488910007.47,23642,9.63,72818.0,-9.27,-11.63,-11.01,0,*59
1488910008.73,23643,9.63,72822.0,-9.27,-11.51,-11.07,0,*5F
1488910010.0,23644,9.63,72816.5,-9.27,-11.51,-11.07,0,*58
1488910011.23,23645,9.63,72820.0,-9.27,-11.45,-11.01,0,*5A
1488910012.47,23646,9.63,72822.5,-9.27,-11.37,-11.01,0,*5C
1488910013.73,23647,9.63,72816.8,-9.23,-11.37,-11.07,0,*5F
1488910014.96,23648,9.63,72816.5,-9.23,-11.33,-11.11,0,*53
1488910016.2,23649,9.63,72816.8,-9.27,-11.37,-11.11,0,*52
1488910017.44,23650,9.63,72816.8,-9.27,-11.37,-11.11,0,*5A
1488910018.67,23651,9.63,72816.5,-9.23,-11.37,-11.11,0,*5F
1488910019.92,23652,9.63,72818.8,-9.27,-11.33,-11.23,0,*5D
1488910021.15,23653,9.63,72818.5,-9.27,-11.37,-11.23,0,*58
1488910022.37,23654,9.63,72816.5,-9.27,-11.23,-11.19,0,*53
1488910023.58,23655,9.63,72816.8,-9.27,-11.19,-11.23,0,*52
1488910024.82,23656,9.63,72818.5,-9.27,-11.23,-11.37,0,*5D
1488910026.05,23657,9.63,72818.5,-9.23,-11.19,-11.37,0,*51
1488910027.26,23658,9.63,72818.8,-9.23,-11.23,-11.45,0,*52
1488910028.49,23659,9.63,72816.3,-9.23,-11.19,-11.51,0,*5F
1488910029.73,23660,9.63,72820.3,-9.23,-11.23,-11.63,0,*5D
1488910030.97,23661,9.63,72818.0,-9.23,-11.23,-11.77,0,*59
1488910032.22,23662,9.63,72818.8,-9.23,-11.33,-11.77,0,*5B
1488910033.49,23663,9.63,72818.0,-9.27,-11.33,-11.85,0,*53
1488910034.7,23664,9.63,72818.0,-9.23,-11.23,-12.03,0,*5C
1488910036.0,23665,9.56,72816.3,-9.21,-11.33,-12.11,0,*5D
1488910037.26,23666,9.63,72818.3,-9.21,-11.29,-12.25,0,*52
1488910038.53,23667,9.56,72818.3,-9.21,-11.33,-12.39,0,*55
1488910039.8,23668,9.63,72818.3,-9.21,-11.45,-12.53,0,*57
1488910041.07,23669,9.63,72820.8,-9.21,-11.45,-12.57,0,*52
1488910042.35,23670,9.63,72822.0,-9.21,-11.45,-12.83,0,*53
1488910043.64,23671,9.63,72816.8,-9.21,-11.59,-12.83,0,*5F
1488910044.9,23672,9.63,72818.0,-9.21,-11.59,-12.97,0,*59
1488910046.17,23673,9.63,72820.3,-9.21,-11.55,-13.11,0,*5B
1488910047.44,23674,9.63,72818.8,-9.21,-11.59,-13.23,0,*51
1488910048.72,23675,9.63,72818.0,-9.21,-11.73,-13.37,0,*5D
1488910049.98,23676,9.63,72816.0,-9.21,-11.81,-13.51,0,*53
1488910051.24,23677,9.63,72818.8,-9.21,-11.85,-13.69,0,*5D
1488910052.47,23678,9.63,72818.0,-9.19,-11.81,-13.69,0,*5D
1488910053.73,23679,9.63,72818.5,-9.19,-11.89,-13.87,0,*54
1488910054.97,23680,9.63,72816.8,-9.19,-12.03,-14.01,0,*5A
1488910056.24,23681,9.63,72818.5,-9.21,-12.11,-14.15,0,*56
1488910057.46,23682,9.63,72816.0,-9.19,-12.25,-14.15,0,*59
1488910058.7,23683,9.63,72818.8,-9.21,-12.29,-14.29,0,*50
1488910059.94,23684,9.63,72816.5,-9.21,-12.39,-14.29,0,*56
1488910061.19,23685,9.63,72818.3,-9.21,-12.43,-14.43,0,*56
1488910062.49,23686,9.63,72820.0,-9.21,-12.53,-14.55,0,*53
1488910063.73,23687,9.63,72822.0,-9.19,-12.53,-14.61,0,*5E
1488910064.99,23688,9.63,72820.8,-9.19,-12.57,-14.75,0,*50
1488910066.25,23689,9.63,72818.0,-9.23,-12.71,-15.01,0,*5E
1488910067.53,23690,9.63,72822.8,-9.21,-12.79,-15.25,0,*5A
1488910068.77,23691,9.63,72822.0,-9.21,-12.97,-15.53,0,*5A
1488910070.02,23692,9.63,72820.3,-9.21,-13.11,-15.71,0,*56
1488910071.28,23693,9.63,72820.0,-9.21,-13.15,-15.85,0,*58
1488910072.52,23694,9.63,72820.3,-9.19,-13.37,-16.03,0,*59
1488910073.77,23695,9.63,72816.8,-9.21,-13.51,-16.03,0,*53
1488910075.01,23696,9.63,72816.5,-9.19,-13.55,-16.31,0,*5E
1488910076.24,23697,9.63,72818.8,-9.19,-13.65,-16.31,0,*5C
1488910077.51,23698,9.63,72818.0,-9.21,-13.87,-16.75,0,*54
1488910078.76,23699,9.56,72816.0,-9.19,-13.97,-16.93,0,*57
1488910079.98,23700,9.63,72820.8,-9.19,-14.11,-16.79,0,*5B
1488910081.22,23701,9.63,72822.3,-9.21,-14.23,-16.93,0,*54
1488910082.49,23702,9.63,72820.0,-9.23,-14.43,-17.21,0,*5B
1488910083.73,23703,9.63,72816.5,-9.21,-14.61,-17.35,0,*5D
1488910084.93,23704,9.63,72820.5,-9.19,-14.69,-17.31,0,*5D
1488910086.19,23705,9.63,72820.0,-9.23,-14.75,-17.25,0,*5D
1488910087.47,23706,9.63,72816.8,-9.21,-14.97,-17.21,0,*54
1488910088.7,23707,9.63,72816.8,-9.21,-15.11,-17.31,0,*5B
1488910089.96,23708,9.63,72820.0,-9.21,-15.15,-17.17,0,*54
1488910091.24,23709,9.56,72818.0,-9.21,-15.25,-17.07,0,*57
1488910092.45,23710,9.56,72818.0,-9.19,-15.29,-16.93,0,*54
1488910093.72,23711,9.63,72820.0,-9.21,-15.25,-16.65,0,*5B
1488910094.98,23712,9.63,72818.5,-9.21,-15.25,-16.65,0,*58
1488910096.22,23713,9.63,72818.0,-9.23,-15.29,-16.65,0,*57
1488910097.43,23714,9.56,72818.5,-9.19,-15.25,-16.41,0,*53
1488910098.7,23715,9.63,72818.5,-9.21,-15.39,-16.41,0,*54
1488910099.94,23716,9.63,72818.5,-9.21,-15.53,-16.41,0,*5B
1488910101.23,23717,9.63,72820.5,-9.21,-15.57,-16.27,0,*5E
1488910102.52,23718,9.63,72818.5,-9.21,-15.57,-16.13,0,*56
1488910103.78,23719,9.63,72818.8,-9.21,-15.53,-15.89,0,*53
1488910105.05,23720,9.56,72818.5,-9.21,-15.39,-15.75,0,*56
1488910106.32,23721,9.63,72818.5,-9.21,-15.25,-15.39,0,*52
1488910107.55,23722,9.63,72818.3,-9.23,-15.01,-15.07,0,*58
1488910108.84,23723,9.63,72820.0,-9.21,-14.75,-14.83,0,*54
1488910110.11,23724,9.63,72822.0,-9.21,-14.51,-14.61,0,*59